Lapse_Rate
5.8 6.1 6.0 6.2 6.4 7.1 6.5 6.2 6.2 6.5 6.5 7.2 7.1 7.3 6.7 6.9 7.1 6.8 7.4 7.2 7.3 7.6 7.1 6.7 6.9 7.0 6.6 6.0 6.2 6.4 6.2 5.8 5.4 5.0 4.8 4.5 4.6 4.6 4.4 4.4 4.5 4.5 4.5 4.5
5.7 6.6 6.4 5.9 6.5 6.3 6.2 6.8 6.4 6.1 6.3 6.8 7.0 6.9 6.8 5.8 6.1 6.3 6.5 6.6 6.3 6.4 6.3 6.0 5.9 6.1 5.7 5.2 5.7 6.0 5.9 5.5 5.1 4.9 4.8 4.6 4.7 4.6 4.4 4.5 4.5 4.5 4.5 4.5
5.6 6.4 6.3 6.1 6.9 6.8 6.3 6.4 6.6 6.0 7.4 7.2 7.0 7.2 6.7 6.0 6.0 6.7 6.4 6.1 6.0 5.6 5.4 5.6 5.4 5.7 5.4 5.5 6.1 5.7 5.9 5.7 5.4 5.1 4.8 4.7 4.6 4.5 4.5 4.5 4.6 4.6 4.5 4.5
5.2 6.0 6.0 7.1 6.9 7.0 7.1 7.2 7.0 6.7 7.7 7.3 7.1 6.8 7.0 6.6 6.6 7.1 6.3 5.9 5.4 5.6 5.0 4.8 5.2 5.2 5.3 5.4 5.5 5.3 5.7 5.3 5.4 5.0 4.9 4.7 4.6 4.6 4.6 4.5 4.6 4.5 4.6 4.8
5.9 6.2 6.5 7.0 7.4 7.4 7.6 7.7 7.8 7.6 8.1 7.8 7.0 6.7 7.0 6.9 6.9 7.1 6.8 6.1 6.0 5.2 5.3 5.3 5.2 5.3 5.4 5.9 5.9 5.9 5.4 5.4 5.1 4.8 4.7 4.7 4.6 4.7 4.6 4.6 4.6 4.7 4.9 5.0
5.7 5.9 6.7 7.7 7.3 7.1 7.1 6.5 7.5 7.2 7.8 8.2 7.3 6.8 7.1 7.1 7.3 6.8 6.7 6.6 6.5 6.4 5.2 5.0 5.1 5.1 5.3 5.3 5.4 5.5 5.4 5.2 4.9 4.6 4.6 4.7 4.7 4.7 4.7 4.7 4.8 5.0 5.1 5.0
5.8 5.6 6.2 7.7 7.5 6.7 6.9 7.7 7.8 7.6 7.5 7.6 7.4 7.5 7.3 7.3 7.3 7.1 6.3 6.7 6.5 5.9 6.0 5.9 5.4 5.4 5.5 5.3 5.4 5.5 5.2 4.8 4.7 4.7 4.8 4.8 4.8 4.8 4.9 5.0 5.1 5.1 5.2 5.1
5.6 5.4 5.3 7.6 7.2 6.7 7.1 7.5 7.7 7.6 7.8 7.8 7.7 7.9 7.5 7.4 7.3 7.0 7.0 6.6 6.2 6.2 6.4 6.5 6.2 5.9 5.9 5.8 5.6 5.4 5.1 5.1 5.0 5.0 5.1 4.9 4.9 5.1 5.3 5.4 5.4 5.3 5.1 5.0
6.6 6.1 7.2 7.4 7.5 7.5 7.4 7.5 7.4 7.5 7.5 7.9 7.9 7.8 7.4 7.4 7.2 7.1 6.9 6.8 6.3 5.8 5.6 5.5 5.9 5.9 6.0 5.9 5.7 5.3 5.0 5.1 5.4 5.3 5.1 5.2 5.3 5.5 5.5 5.4 5.3 5.1 5.2 5.1
5.4 7.1 6.4 7.2 7.5 7.4 7.5 7.6 7.6 7.6 7.5 7.7 7.7 7.8 7.4 7.4 7.1 6.9 6.7 6.1 5.6 5.4 5.5 5.8 5.8 5.8 5.7 5.5 5.3 5.2 5.2 5.2 5.1 5.1 5.1 5.4 5.6 5.4 5.3 5.3 5.3 5.4 5.2 4.9
5.9 6.6 6.3 6.6 7.0 7.0 7.2 7.5 7.5 7.6 7.7 7.8 7.7 7.6 7.2 7.0 7.2 7.0 6.0 5.5 5.6 5.7 5.8 5.7 5.7 5.4 5.2 5.3 5.2 5.2 5.1 4.9 5.0 5.0 5.3 5.6 5.4 5.4 5.5 5.5 5.5 5.2 4.9 4.8
5.8 6.8 6.1 6.5 6.7 7.0 7.4 7.5 7.7 7.6 7.5 7.7 7.3 6.9 6.7 6.6 6.8 7.1 5.9 5.8 5.8 6.0 5.9 5.7 5.5 5.4 5.4 5.0 4.8 4.8 4.9 4.9 4.9 5.0 5.3 5.4 5.5 5.6 5.5 5.3 5.1 4.9 4.7 4.7
6.5 6.4 6.1 6.4 6.8 7.2 7.1 7.7 7.6 7.2 6.6 6.8 6.7 6.3 6.1 6.3 6.0 6.0 6.2 6.0 5.8 5.8 5.7 5.6 5.4 5.1 5.0 4.8 4.6 4.6 4.7 4.8 4.9 5.2 5.5 5.5 5.5 5.4 5.2 5.1 4.8 4.6 4.5 4.4
6.2 6.3 6.2 6.4 6.8 7.1 7.4 7.1 7.4 7.1 6.7 6.2 6.2 5.8 5.9 5.9 5.9 5.8 5.7 5.6 5.5 5.4 5.1 4.9 4.8 4.6 3.9 4.1 4.5 4.6 4.4 4.9 5.3 5.4 5.4 5.4 5.2 5.2 4.9 4.6 4.5 4.5 4.4 4.4
5.7 6.0 5.6 6.2 6.7 7.1 6.9 6.8 6.8 6.8 6.5 6.2 6.0 6.1 5.9 5.8 5.5 5.5 5.3 5.0 4.8 4.7 4.5 3.7 3.4 3.7 4.2 4.0 4.0 4.4 5.0 5.2 5.4 5.3 5.2 5.2 5.0 4.7 4.5 4.7 4.5 4.4 4.3 4.1
5.2 5.5 5.4 6.0 7.1 6.9 6.5 6.2 6.4 6.2 6.0 5.7 5.6 5.5 5.5 5.5 5.3 5.1 4.7 3.9 3.4 3.2 3.3 3.5 4.1 3.6 3.6 4.2 4.8 5.1 5.2 5.3 5.2 5.3 5.1 4.8 4.7 4.8 4.8 4.6 4.4 4.2 3.9 3.7
4.5 4.5 4.8 6.1 6.6 6.1 5.6 5.7 5.9 5.7 5.5 5.3 5.2 5.0 4.8 4.1 3.6 3.2 3.0 3.2 3.4 3.8 3.5 3.5 4.0 4.6 4.9 5.1 5.2 5.3 5.3 5.4 5.2 4.8 4.7 4.9 4.8 4.7 4.6 4.4 4.1 3.8 3.7 3.9
4.4 4.5 5.0 5.0 4.8 4.9 4.8 4.9 4.8 4.3 4.0 3.5 3.3 3.2 3.4 3.4 3.7 3.9 3.9 3.5 3.4 3.5 4.0 4.4 4.9 5.0 5.1 5.2 5.3 5.3 5.1 4.8 4.7 4.9 5.0 4.8 4.7 4.5 4.3 4.1 3.9 3.9 3.9 4.0
3.9 3.9 3.9 3.8 3.7 3.6 3.5 3.6 3.6 3.7 3.6 3.6 3.6 3.6 3.9 3.7 3.5 3.6 3.8 4.1 4.4 4.7 4.8 4.9 5.0 5.1 5.1 5.1 5.0 4.8 4.8 5.0 5.0 4.8 4.7 4.6 4.5 4.4 4.2 4.0 4.0 4.0 4.1 4.9
3.8 3.9 4.1 4.3 4.2 4.0 4.2 4.1 4.1 4.0 4.0 3.6 3.3 3.3 3.5 3.8 4.1 4.4 4.6 4.7 4.8 4.9 5.0 5.0 5.0 5.0 4.9 4.9 4.9 5.0 4.9 4.8 4.8 4.8 4.8 4.6 4.4 4.2 4.1 4.0 4.1 4.7 5.3 5.6
4.2 4.3 4.4 4.2 4.3 4.2 4.1 4.0 3.9 3.9 3.8 3.9 4.1 4.3 4.6 4.8 4.8 4.9 4.9 5.0 5.0 5.0 5.0 5.1 5.0 5.1 5.1 5.0 5.0 4.9 4.9 4.9 4.9 4.7 4.7 4.5 4.3 4.1 4.2 4.4 5.2 5.5 5.7 5.6
4.6 4.4 4.2 4.1 4.2 4.4 4.5 4.6 4.9 5.0 5.1 5.1 5.1 5.1 5.0 5.1 5.1 5.1 5.0 5.1 5.1 5.1 5.1 5.2 5.1 5.0 4.9 4.9 4.9 5.0 5.0 4.8 4.7 4.6 4.5 4.5 4.4 4.3 4.8 5.4 5.6 5.7 5.7 5.8
5.0 5.1 5.1 5.2 5.2 5.3 5.4 5.4 5.4 5.4 5.4 5.4 5.4 5.4 5.3 5.2 5.2 5.2 5.2 5.1 5.1 5.1 5.1 5.0 5.0 5.0 5.0 4.9 4.9 4.9 4.8 4.7 4.7 4.6 4.6 4.4 4.5 5.2 5.5 5.7 5.7 5.8 5.9 6.0
5.5 5.4 5.4 5.5 5.5 5.5 5.4 5.5 5.5 5.5 5.6 5.7 5.6 5.5 5.4 5.3 5.1 5.0 5.0 4.9 4.9 4.9 4.9 4.9 5.0 5.0 5.0 5.0 5.0 4.9 4.7 4.7 4.6 4.4 4.4 4.9 5.4 5.6 5.8 5.9 6.0 6.2 6.2 6.3
5.5 5.6 5.6 5.7 5.7 5.8 5.9 5.9 5.9 5.9 5.8 5.8 5.8 5.6 5.4 5.4 5.1 4.9 4.9 4.9 4.8 4.9 5.0 5.1 5.1 5.0 4.9 4.8 4.7 4.6 4.6 4.5 4.6 4.7 5.2 5.5 5.8 5.9 6.0 6.2 6.3 6.3 6.4 6.4
6.2 6.2 6.2 6.2 6.1 6.1 6.1 6.2 6.2 6.1 6.1 6.0 5.9 5.6 5.5 5.3 5.2 5.2 5.1 5.0 4.8 4.8 4.7 4.7 4.6 4.5 4.4 4.4 4.5 4.6 5.0 5.3 5.5 5.6 5.7 5.9 6.0 6.2 6.3 6.4 6.5 6.6 6.5 6.4
6.6 6.6 6.6 6.6 6.5 6.3 6.3 6.3 6.4 6.3 6.1 5.9 5.6 5.6 5.5 5.2 5.0 4.9 4.7 4.5 4.4 4.3 4.3 4.2 4.2 4.3 4.6 4.9 5.5 5.8 6.0 6.0 5.9 5.9 6.0 6.1 6.3 6.4 6.5 6.6 6.6 6.6 6.5 6.5
Wind_Speed
19 17 14 12 11 20 21 20 10 13 12 10 3 5 4 3 5 6 8 9 12 15 14 15 15 16 16 15 17 17 17 16 14 14 13 12 11 9 8 7 6 8 6 5
9 14 10 19 13 13 21 21 19 19 16 4 4 4 4 4 5 7 8 13 10 9 15 17 17 17 17 17 17 18 17 16 15 15 13 11 10 9 8 7 6 6 6 5
5 9 14 11 8 13 9 19 17 15 16 3 5 5 6 6 6 8 11 12 15 14 12 13 16 18 18 18 18 18 18 17 16 14 13 10 9 9 8 6 6 6 5 4
5 9 3 7 15 14 20 16 14 12 9 7 8 9 12 11 14 13 14 15 15 14 14 14 15 16 18 18 18 18 18 16 14 14 12 10 9 8 6 5 6 4 4 3
3 3 9 16 7 2 9 17 18 15 16 7 5 5 2 2 6 9 12 12 12 12 15 15 15 18 20 18 18 18 16 15 13 13 12 10 9 7 5 5 4 3 2 2
1 3 3 5 4 6 3 9 10 16 18 9 10 4 4 9 14 14 13 14 15 16 16 17 16 18 21 18 18 16 15 14 12 11 10 9 8 7 4 4 4 3 4 3
9 4 7 9 4 8 2 3 8 8 7 6 8 6 9 16 15 15 16 19 16 17 18 18 17 19 19 18 16 15 14 14 12 10 10 9 6 4 5 5 5 4 4 3
6 5 9 3 1 3 2 4 4 7 5 2 9 14 17 17 16 18 17 19 18 17 16 16 17 19 19 17 14 15 14 13 12 10 7 7 8 5 5 5 5 4 3 3
5 5 3 5 5 6 5 6 4 5 3 12 16 16 17 16 18 17 18 15 15 18 17 15 15 20 21 14 15 14 14 13 11 9 7 7 7 6 4 4 4 3 2 1
8 4 9 9 7 7 6 4 6 4 6 14 18 16 18 17 16 16 16 17 16 19 20 18 17 18 17 14 14 14 13 12 10 10 8 6 4 4 4 3 3 2 0 1
6 7 11 4 8 7 7 9 11 11 10 13 19 17 17 17 18 18 17 15 16 17 18 18 17 16 14 13 13 12 12 10 9 7 6 6 5 4 3 2 3 2 1 1
4 9 5 6 7 7 8 13 11 16 16 14 16 19 20 17 17 19 18 17 17 18 19 16 16 14 12 10 12 12 11 8 7 6 5 5 4 4 7 6 7 6 6 3
6 6 3 3 8 8 12 14 14 17 17 20 17 17 20 19 18 25 20 19 17 17 16 15 14 12 9 9 10 10 10 8 7 7 5 4 4 4 3 5 7 7 6 5
4 3 6 9 6 11 15 16 19 18 17 18 20 18 19 21 20 20 18 16 16 16 15 14 13 11 8 9 10 10 9 14 6 5 5 4 4 4 3 3 2 1 5 6
8 8 7 9 12 14 14 15 19 18 19 20 20 19 19 21 19 17 15 16 16 15 13 12 12 9 7 8 9 8 7 5 5 5 4 5 4 4 3 3 2 2 2 5
13 13 13 13 16 17 17 17 20 19 19 18 19 19 18 18 17 16 14 12 13 11 11 10 10 7 7 7 7 6 7 14 9 5 4 4 3 3 2 2 2 3 3 3
14 13 14 18 19 18 18 14 16 16 17 18 17 16 18 17 15 14 13 12 11 11 9 9 8 7 6 6 7 4 5 5 11 5 4 3 3 2 3 3 2 1 1 4
17 16 17 17 16 16 17 18 17 17 16 16 15 15 15 14 13 11 10 10 11 10 8 7 7 7 6 6 6 4 4 5 5 4 3 4 4 3 3 2 2 2 2 4
18 19 19 18 17 17 16 16 16 15 14 13 14 14 12 11 10 9 9 9 9 9 4 5 12 7 5 8 7 4 4 4 4 4 3 7 4 3 3 3 3 3 3 4
20 19 19 18 18 16 15 14 14 14 11 11 12 12 11 9 8 8 8 7 4 4 4 6 6 5 5 7 10 4 4 4 4 5 3 3 3 3 3 5 4 3 3 4
15 15 15 15 14 14 13 11 11 11 10 10 10 9 8 6 6 6 7 5 2 5 5 8 4 3 2 6 5 4 4 4 4 4 4 4 4 3 3 3 3 3 3 3
11 11 12 12 12 13 11 10 10 9 9 8 8 7 6 6 5 5 4 4 1 9 4 2 3 7 5 10 3 3 4 4 4 4 3 3 2 3 3 2 2 3 3 3
10 10 10 11 10 9 9 9 8 8 8 6 6 5 4 3 2 3 3 2 2 5 3 2 5 11 12 4 3 4 4 4 4 3 3 2 2 1 0 2 2 3 3 4
9 9 9 8 8 9 9 7 6 6 5 5 5 4 3 2 3 3 0 3 3 5 2 1 8 11 9 3 4 4 3 3 3 2 2 1 0 1 2 1 3 3 3 5
7 7 7 8 8 6 6 5 5 5 5 5 5 4 4 3 2 0 2 3 5 4 2 3 13 11 4 3 3 3 2 2 2 2 2 1 1 2 2 2 3 3 3 2
7 5 5 6 4 3 2 3 3 3 3 3 3 3 3 3 2 2 2 3 2 5 4 5 4 4 3 3 3 3 2 1 1 1 2 2 2 2 1 3 2 4 6 9
6 8 4 4 3 4 4 3 2 3 4 2 2 2 2 2 2 1 0 2 2 3 2 2 3 4 3 3 3 2 3 2 1 2 0 2 2 1 5 6 8 11 12 12
Wind_Direction
313 303 289 274 267 204 218 231 230 246 226 253 297 319 302 276 60 76 91 108 137 143 137 144 144 139 133 133 131 129 129 128 128 121 119 117 115 113 112 110 110 112 111 96
294 304 334 324 264 230 223 227 234 250 259 156 232 78 88 99 133 120 118 122 115 129 137 141 141 138 135 134 128 129 127 122 121 117 119 119 118 116 111 109 106 106 99 101
275 320 329 304 241 230 222 220 218 232 238 193 222 174 158 171 205 155 147 143 139 143 143 140 141 137 135 131 126 125 123 122 122 121 119 118 116 115 115 113 112 105 100 97
276 297 257 251 310 238 213 228 222 243 237 201 243 211 187 188 183 169 154 147 145 144 144 138 133 126 123 123 120 121 118 117 118 119 118 117 118 116 114 111 113 109 103 92
248 303 300 306 314 332 186 244 227 224 243 212 114 76 347 147 145 149 143 137 135 131 126 125 127 129 121 118 119 117 118 118 119 120 120 121 120 119 113 110 100 105 110 95
271 258 272 251 354 329 167 279 4 219 232 190 143 184 217 149 121 123 127 130 130 126 122 124 129 127 117 119 117 117 120 117 115 118 121 119 120 119 104 107 111 109 98 74
231 267 278 267 321 325 83 249 318 341 299 175 196 235 137 130 129 131 132 125 124 128 130 130 130 122 115 117 112 115 112 111 111 111 112 116 111 105 111 110 106 86 70 30
213 224 258 318 130 200 299 276 265 305 299 168 109 115 122 122 122 121 123 124 126 122 120 121 122 115 110 104 112 110 109 107 107 109 112 114 114 112 105 109 101 82 63 16
209 227 292 355 341 325 287 269 307 307 5 128 120 121 123 124 125 123 120 119 121 115 109 107 112 115 110 115 114 112 108 107 103 100 105 109 115 117 101 105 107 82 58 350
339 11 341 330 318 327 311 306 10 38 107 120 119 119 117 115 117 114 114 115 117 113 106 99 98 100 103 112 111 111 109 107 107 109 102 93 96 110 120 105 84 97 191 357
270 310 310 328 353 340 345 52 60 62 82 105 113 108 111 114 114 109 105 106 107 105 101 100 99 96 103 106 110 110 109 111 106 103 109 110 105 112 104 126 162 156 181 3
274 329 275 292 326 354 39 63 69 87 84 83 97 107 107 104 105 104 103 102 93 92 95 95 96 95 97 109 117 118 114 107 111 114 112 109 104 81 83 87 74 49 24 5
257 327 59 72 40 55 76 79 85 89 93 99 92 99 100 101 100 102 98 94 96 100 99 98 96 93 92 99 108 109 112 117 119 114 117 118 107 102 97 42 64 50 26 4
335 344 16 25 73 74 81 84 87 86 86 89 96 91 94 92 84 83 88 95 95 94 89 90 89 85 85 94 99 105 114 120 116 123 119 108 102 98 95 90 78 350 358 15
40 79 94 91 87 77 80 88 85 85 87 83 79 82 81 86 86 86 88 91 90 90 90 92 94 90 92 100 107 109 112 118 116 103 95 105 102 99 109 128 108 59 354 8
66 74 82 82 83 80 82 80 88 85 85 85 84 82 83 84 84 84 84 87 96 94 92 96 102 110 112 116 113 109 108 112 109 100 101 94 98 110 100 92 78 42 13 338
72 67 73 72 71 71 72 75 79 83 83 81 83 89 90 87 81 79 78 81 89 97 102 108 109 103 94 87 88 84 96 104 118 91 101 106 106 103 89 76 59 33 351 335
63 58 64 69 76 77 69 67 68 70 71 77 77 78 78 82 92 91 91 94 91 86 84 89 97 99 97 99 103 103 102 107 109 116 124 109 96 88 78 74 52 34 345 348
58 60 56 57 63 66 67 68 66 67 66 72 79 77 80 81 86 90 91 89 90 96 91 111 122 112 118 124 116 107 111 107 101 95 93 97 86 74 64 61 51 21 359 353
46 49 52 53 49 53 59 55 64 66 63 72 78 77 76 72 82 89 87 81 89 115 114 115 114 111 109 118 117 105 103 113 111 109 99 83 81 67 51 35 32 10 354 341
48 50 52 54 54 52 54 54 62 63 61 65 78 79 81 76 79 97 101 102 82 121 124 113 120 114 108 109 110 105 102 96 90 93 84 73 55 39 24 23 16 358 337 328
45 50 52 55 56 53 43 47 54 61 60 62 63 69 80 78 86 83 82 116 137 111 98 97 122 132 127 115 95 90 88 90 90 85 78 69 56 43 16 359 344 329 317 301
47 51 49 49 52 55 48 42 44 53 57 55 59 61 68 66 64 95 86 57 78 112 102 118 156 120 111 90 85 89 92 91 94 98 93 89 58 23 282 307 298 304 303 302
46 44 47 42 49 50 47 25 35 41 50 50 55 52 91 84 44 21 88 108 126 112 115 323 137 117 105 92 91 95 101 106 109 115 120 118 295 292 292 287 306 301 293 312
46 44 40 37 41 35 28 15 34 30 35 36 36 28 42 40 113 70 40 25 93 90 3 273 135 119 105 101 107 109 112 116 153 163 186 222 254 270 288 299 294 286 282 300
35 37 33 35 32 8 8 26 27 347 17 7 11 16 18 23 21 56 20 44 44 64 34 78 81 97 109 115 122 126 123 113 68 151 233 228 229 280 326 305 282 296 297 299
21 44 22 10 7 6 357 15 17 336 344 331 301 323 340 340 327 35 46 60 77 77 82 62 84 130 120 123 127 112 128 123 240 259 250 224 297 319 313 306 303 301 305 308